Wind_Speed
52 51 51 51 51 51 50 50 50 50 50 50 50 50 51 51 51 52 52 52 53 53 52 52 53 53 55 56 57 59 60 61 63 64 64 65 65 65 65 66 67 68 70
53 53 52 52 52 53 52 52 52 52 52 52 52 52 53 53 53 53 53 53 53 53 53 53 53 54 56 57 59 60 62 63 64 64 64 65 64 65 65 67 68 70 73
54 54 54 53 53 53 54 54 54 54 54 53 53 53 54 54 54 54 54 54 53 53 53 54 55 56 57 59 60 62 63 64 64 64 64 64 64 65 66 68 70 72 75
54 54 54 54 54 54 55 55 55 55 55 54 54 54 54 54 54 54 54 54 54 54 54 55 57 58 59 60 62 63 64 64 65 64 64 64 65 66 67 69 71 74 77
53 54 54 55 55 55 55 55 55 55 55 55 55 55 55 55 55 55 54 55 55 55 56 57 58 59 60 62 63 64 64 64 64 64 64 65 66 67 69 71 73 76 79
53 54 54 54 55 55 55 55 55 55 55 55 55 55 55 55 55 55 55 56 56 56 57 58 60 61 62 63 64 64 64 64 64 65 65 67 68 69 71 74 76 78 80
52 53 54 54 54 55 55 55 54 55 55 55 55 55 55 55 55 54 55 55 56 58 59 60 61 62 63 64 64 64 64 64 65 65 66 68 70 71 74 76 78 80 82
51 52 52 53 54 54 54 55 55 55 55 54 54 55 55 55 55 56 56 57 59 60 61 62 62 63 64 64 64 64 64 65 66 67 69 70 72 74 76 78 80 81 83
52 52 53 53 54 55 55 55 55 55 55 55 55 55 56 56 56 57 57 59 60 61 62 63 64 64 64 64 64 65 65 66 67 69 71 72 74 76 77 79 80 82 82
52 53 53 53 53 54 54 54 54 55 56 56 56 56 56 56 57 58 59 61 62 63 63 64 64 64 64 64 65 65 66 67 69 71 73 74 76 77 78 80 81 82 83
51 51 52 52 53 53 54 54 54 55 55 55 55 56 57 58 59 60 61 62 63 63 63 64 64 64 65 65 65 66 67 69 70 72 74 75 77 78 79 80 81 82 81
51 51 51 51 52 52 53 54 54 54 55 55 56 57 58 59 60 61 62 63 63 64 64 65 65 65 65 65 66 68 69 70 72 74 75 76 77 78 79 80 80 80 79
52 53 53 53 53 53 54 54 55 55 56 57 57 58 59 60 62 63 63 63 64 64 65 65 64 65 66 67 68 69 70 72 73 75 76 77 78 79 79 79 79 78 77
52 53 53 54 54 54 55 56 56 57 58 58 59 60 61 62 63 63 63 64 64 64 64 65 66 67 67 68 69 70 72 73 74 75 76 77 78 78 78 78 77 76 75
52 53 54 54 55 55 56 57 58 59 60 60 61 61 62 62 63 63 63 64 64 64 65 66 68 68 69 70 71 72 73 74 75 76 76 77 77 77 77 76 75 74 73
53 54 54 55 56 57 58 58 59 60 60 61 61 61 62 62 63 63 63 63 64 66 67 68 69 69 70 71 72 72 74 75 76 76 77 77 76 76 75 74 73 72 70
52 53 54 55 55 56 57 58 58 59 60 61 61 61 62 62 62 63 64 65 66 67 68 68 69 70 71 72 73 74 75 76 76 77 76 76 76 75 73 72 71 70 68
52 53 53 54 55 56 57 58 58 59 60 60 61 61 62 63 63 64 65 66 67 68 69 70 71 72 72 73 74 75 76 76 76 76 76 75 74 73 72 70 69 68 66
53 54 54 55 56 57 57 58 58 59 60 60 61 62 63 64 65 66 67 68 69 70 70 71 72 73 74 75 75 76 76 76 75 75 75 74 73 71 70 69 67 66 65
54 55 55 56 57 57 58 59 59 60 61 62 63 64 65 66 67 68 69 69 70 71 72 72 73 74 75 76 76 76 76 76 75 74 74 72 71 69 68 67 66 64 62
55 56 56 57 58 59 60 60 61 62 63 64 65 66 67 68 69 69 70 70 71 72 73 74 75 76 76 76 76 76 76 76 74 73 72 70 69 67 66 65 63 62 60
58 59 59 60 61 61 62 63 64 64 65 66 67 68 69 70 70 70 71 72 73 74 75 76 77 77 77 77 77 77 76 75 73 72 70 68 66 65 64 62 61 60 58
61 61 62 63 63 64 65 66 66 67 68 69 69 70 71 72 72 73 74 75 76 77 78 78 78 78 78 77 77 76 75 74 73 71 69 67 65 64 62 61 60 59 57
64 65 65 66 67 68 68 69 70 70 71 72 73 73 74 75 75 76 77 78 78 79 79 78 78 77 77 77 77 75 74 73 71 69 67 65 64 63 61 60 59 58 57
68 69 69 70 70 71 72 73 74 74 75 75 76 77 77 77 78 78 79 79 79 78 78 78 77 77 77 77 76 74 72 70 68 66 65 63 62 61 59 59 58 57 56
72 73 73 74 75 75 76 77 77 78 78 78 79 79 79 79 79 79 79 79 79 78 78 78 77 76 75 74 73 71 69 68 66 64 63 61 60 60 59 57 57 56 55
Wind_Direction
249 250 251 252 254 255 257 259 261 263 265 267 269 271 273 275 278 280 281 283 285 286 288 289 291 293 295 297 299 301 303 305 306 307 308 309 309 310 310 311 312 313 314
249 251 252 253 255 256 257 259 261 263 265 267 269 271 273 275 277 279 281 283 284 285 287 289 291 293 295 297 299 302 303 305 306 307 308 309 309 310 311 312 313 314 316
250 251 252 254 255 257 258 259 261 263 265 267 269 271 273 275 277 279 281 282 283 285 287 288 290 293 295 297 300 302 303 305 306 306 307 308 309 310 311 312 314 315 317
251 252 253 254 256 257 258 260 261 263 265 267 269 271 273 275 277 279 280 281 283 285 286 288 291 294 296 298 300 301 303 304 305 306 307 307 308 310 311 312 314 316 317
251 252 253 255 256 257 259 260 261 263 265 267 268 270 272 274 276 278 279 280 282 284 286 289 292 294 296 298 300 301 303 304 305 305 306 307 308 310 311 312 314 316 318
251 252 253 255 256 257 258 259 261 262 264 266 268 270 272 273 274 276 278 280 282 285 287 289 291 294 296 298 300 301 302 303 304 304 306 307 308 310 311 313 315 316 317
251 252 253 254 256 257 258 259 261 262 264 266 268 270 271 273 274 276 279 281 283 285 287 289 291 294 296 298 299 300 302 303 303 304 305 307 308 310 312 314 315 317 319
250 252 253 255 255 257 258 259 261 263 264 266 267 269 271 273 275 277 279 281 283 286 288 290 292 294 296 297 298 300 301 302 303 304 305 307 309 311 312 314 316 317 319
251 253 254 255 257 257 258 259 261 263 265 266 268 270 271 273 275 277 279 281 284 286 288 290 292 294 296 297 298 299 300 302 303 304 305 307 309 311 313 314 316 318 319
253 254 255 256 257 258 259 260 262 264 265 266 268 269 271 273 275 277 279 282 284 286 288 290 293 294 295 297 298 298 299 300 302 304 305 307 309 311 313 315 316 318 319
255 256 257 258 259 260 261 262 263 265 266 268 269 271 273 274 276 278 281 283 285 286 288 291 292 294 295 296 297 297 298 299 301 303 305 307 309 312 313 315 316 317 319
256 257 258 260 261 262 263 263 264 266 267 268 271 273 274 276 278 279 281 283 285 287 289 291 292 293 293 294 295 296 298 299 301 303 305 307 309 311 313 315 316 317 318
257 258 259 260 261 262 263 264 265 267 268 270 272 273 274 276 278 280 282 283 285 287 289 290 291 291 292 293 294 296 297 299 301 303 305 307 309 311 313 314 316 317 318
259 259 260 261 262 263 263 265 266 268 269 271 272 273 275 277 279 280 282 283 285 287 288 288 289 290 291 293 294 295 297 298 301 303 305 307 309 311 312 314 315 316 317
260 261 262 262 263 264 265 266 267 268 270 271 273 274 276 278 280 281 283 284 285 286 286 287 288 290 291 292 293 295 297 299 301 303 305 307 309 310 312 313 314 315 316
261 262 263 264 265 266 267 268 269 270 271 272 274 275 277 278 279 281 282 283 283 284 285 287 288 289 290 292 293 295 297 299 301 303 305 306 308 309 311 312 313 314 315
264 264 265 266 267 267 268 269 270 271 272 273 275 276 277 278 279 280 281 282 283 284 285 286 287 288 290 291 293 295 297 299 301 303 304 306 307 308 309 310 312 313 313
266 266 266 267 267 268 269 269 271 272 273 274 275 275 276 277 278 279 280 281 283 284 284 286 287 288 290 292 294 295 297 299 300 302 303 305 306 307 308 309 310 311 312
266 266 267 268 268 269 270 270 271 272 273 274 275 276 276 277 278 279 280 281 282 283 284 286 287 289 290 292 294 295 297 298 299 301 302 303 304 305 306 307 308 310 310
267 268 268 269 269 270 270 271 272 273 273 274 275 276 276 277 278 279 280 281 282 283 285 286 288 289 291 292 293 294 296 297 298 299 300 301 302 303 304 305 307 308 309
269 270 270 270 271 271 272 273 273 274 274 275 276 276 277 278 279 279 281 282 283 284 285 287 288 289 290 292 292 293 295 296 297 297 298 299 299 301 302 303 304 306 306
271 271 272 272 273 273 274 274 275 275 276 276 276 277 278 278 279 280 281 282 283 284 286 287 288 289 289 290 291 292 293 294 295 295 296 296 297 298 300 301 302 303 304
272 273 273 274 274 275 275 275 276 276 276 277 277 278 279 279 280 281 282 283 284 285 285 286 287 288 289 289 290 291 292 292 293 293 294 294 295 296 298 299 300 301 301
274 274 274 275 275 276 276 277 277 277 277 278 278 279 279 280 280 281 282 283 283 284 285 286 286 287 287 288 289 290 290 290 291 291 292 292 293 294 295 297 298 298 299
274 275 275 276 276 277 277 277 278 278 279 279 280 280 280 281 281 282 282 283 283 284 284 285 285 286 286 287 287 288 289 289 289 289 289 290 291 292 293 295 296 296 297
275 276 276 277 277 278 278 278 279 279 279 280 280 281 281 281 282 282 282 282 283 283 283 284 284 284 284 285 286 286 286 286 286 287 288 288 289 291 292 293 294 295 295
Height
5778 5780 5782 5784 5785 5786 5787 5788 5788 5788 5788 5787 5786 5784 5783 5781 5779 5777 5774 5771 5768 5765 5762 5758 5755 5751 5746 5741 5736 5731 5725 5719 5713 5706 5699 5692 5684 5677 5669 5661 5653 5644 5636
5766 5768 5770 5772 5773 5774 5775 5776 5776 5776 5776 5775 5774 5773 5771 5769 5767 5765 5762 5759 5756 5753 5750 5746 5743 5738 5734 5729 5724 5718 5712 5706 5700 5693 5686 5679 5672 5664 5656 5648 5639 5630 5621
5753 5756 5758 5759 5761 5762 5763 5763 5763 5763 5763 5762 5762 5760 5759 5757 5755 5752 5750 5747 5744 5741 5737 5734 5730 5726 5721 5716 5711 5705 5699 5693 5686 5680 5673 5666 5659 5652 5644 5635 5626 5616 5606
5741 5743 5745 5747 5748 5749 5749 5750 5750 5750 5750 5749 5749 5747 5746 5744 5742 5740 5737 5734 5731 5728 5725 5721 5717 5713 5708 5703 5697 5692 5686 5679 5673 5666 5660 5653 5646 5638 5631 5622 5613 5602 5592
5728 5730 5732 5733 5734 5735 5736 5736 5737 5737 5737 5736 5735 5734 5732 5731 5729 5726 5724 5721 5718 5715 5712 5708 5704 5699 5694 5689 5684 5678 5672 5666 5659 5653 5646 5639 5632 5624 5617 5608 5599 5589 5578
5714 5716 5718 5720 5721 5722 5722 5723 5723 5723 5723 5722 5721 5720 5719 5717 5715 5713 5711 5708 5705 5702 5698 5694 5690 5685 5680 5675 5669 5664 5658 5652 5645 5639 5632 5625 5617 5610 5601 5592 5583 5575 5566
5701 5703 5704 5706 5707 5708 5709 5709 5710 5710 5709 5709 5708 5707 5705 5704 5702 5699 5697 5694 5691 5688 5684 5680 5676 5671 5666 5661 5655 5649 5643 5637 5631 5625 5618 5610 5603 5595 5587 5578 5567 5556 5545
5688 5689 5691 5692 5693 5694 5695 5696 5696 5696 5695 5695 5694 5693 5692 5690 5688 5686 5683 5680 5677 5674 5670 5666 5662 5657 5651 5646 5641 5635 5629 5622 5617 5610 5603 5596 5587 5579 5570 5561 5551 5541 5529
5674 5676 5677 5678 5679 5680 5681 5682 5682 5682 5681 5681 5680 5679 5678 5676 5674 5671 5669 5666 5663 5659 5655 5651 5647 5642 5637 5631 5626 5620 5614 5607 5601 5594 5587 5579 5571 5563 5554 5544 5534 5524 5515
5661 5662 5663 5664 5665 5666 5667 5667 5667 5667 5667 5666 5666 5665 5663 5662 5659 5657 5654 5651 5648 5644 5640 5636 5632 5627 5621 5616 5611 5605 5599 5592 5585 5578 5571 5563 5555 5546 5537 5527 5517 5507 5496
5647 5649 5650 5651 5652 5652 5653 5653 5653 5653 5653 5652 5651 5650 5648 5646 5644 5642 5639 5636 5633 5629 5625 5621 5616 5611 5606 5601 5596 5590 5584 5577 5570 5562 5555 5547 5538 5529 5520 5511 5501 5490 5480
5634 5636 5637 5637 5638 5639 5639 5639 5639 5638 5638 5637 5636 5635 5633 5631 5629 5626 5623 5620 5617 5613 5610 5605 5601 5596 5591 5585 5580 5574 5568 5561 5554 5547 5539 5531 5522 5513 5504 5494 5484 5474 5464
5620 5622 5622 5623 5624 5624 5624 5624 5624 5624 5623 5622 5621 5619 5617 5615 5613 5610 5607 5604 5601 5597 5594 5589 5585 5580 5575 5570 5564 5558 5552 5545 5538 5531 5523 5515 5506 5497 5488 5478 5469 5458 5448
5607 5607 5608 5609 5609 5609 5609 5609 5609 5608 5607 5606 5605 5603 5601 5599 5596 5594 5591 5588 5584 5581 5577 5573 5568 5563 5558 5553 5548 5541 5535 5529 5521 5514 5506 5498 5490 5481 5472 5463 5454 5444 5434
5592 5593 5593 5594 5594 5594 5594 5594 5593 5593 5592 5590 5589 5587 5584 5583 5580 5577 5574 5571 5568 5565 5560 5556 5552 5547 5542 5536 5531 5525 5518 5512 5505 5497 5490 5482 5473 5465 5456 5447 5438 5429 5420
5578 5579 5579 5579 5579 5579 5578 5578 5577 5576 5575 5573 5572 5570 5568 5566 5563 5560 5558 5555 5551 5547 5543 5539 5535 5530 5524 5519 5513 5507 5501 5494 5487 5480 5473 5465 5457 5449 5441 5432 5423 5415 5406
5563 5564 5564 5564 5563 5563 5562 5562 5561 5560 5558 5557 5555 5553 5551 5549 5546 5543 5540 5537 5534 5530 5526 5522 5517 5512 5507 5501 5496 5490 5484 5477 5469 5463 5455 5448 5440 5432 5425 5417 5408 5400 5392
5548 5548 5548 5548 5548 5547 5546 5546 5545 5543 5542 5540 5538 5536 5534 5531 5529 5526 5522 5519 5516 5512 5508 5504 5499 5494 5489 5483 5477 5471 5465 5459 5452 5445 5438 5431 5423 5416 5408 5401 5393 5385 5377
5533 5533 5532 5532 5531 5530 5530 5529 5528 5526 5525 5523 5521 5519 5516 5513 5510 5508 5504 5501 5498 5493 5489 5485 5480 5475 5470 5464 5459 5453 5446 5440 5434 5427 5420 5413 5406 5399 5392 5385 5378 5371 5363
5517 5516 5516 5515 5514 5514 5513 5512 5510 5509 5507 5505 5503 5501 5498 5495 5492 5489 5485 5482 5478 5474 5470 5465 5460 5455 5450 5445 5439 5433 5427 5421 5415 5409 5402 5396 5389 5382 5376 5369 5362 5356 5349
5500 5499 5499 5498 5497 5496 5495 5493 5492 5490 5489 5486 5484 5481 5478 5476 5473 5469 5466 5462 5458 5454 5449 5445 5440 5435 5430 5425 5419 5413 5408 5402 5396 5390 5384 5378 5372 5366 5360 5353 5347 5341 5334
5482 5481 5480 5479 5478 5477 5476 5474 5472 5471 5469 5467 5464 5461 5458 5455 5452 5449 5445 5441 5437 5433 5428 5424 5419 5414 5409 5404 5399 5393 5388 5382 5376 5371 5366 5360 5355 5349 5344 5338 5332 5326 5320
5463 5462 5461 5460 5458 5457 5455 5454 5452 5450 5448 5445 5443 5440 5436 5434 5431 5427 5424 5419 5415 5411 5406 5402 5397 5392 5387 5382 5378 5373 5367 5362 5357 5352 5347 5342 5337 5332 5327 5322 5316 5311 5305
5443 5441 5440 5439 5437 5436 5434 5432 5430 5428 5426 5423 5420 5417 5414 5411 5408 5404 5400 5396 5392 5388 5383 5379 5374 5370 5365 5360 5356 5351 5346 5341 5336 5332 5328 5323 5319 5314 5310 5305 5300 5295 5290
5421 5420 5419 5417 5416 5414 5412 5410 5407 5405 5402 5400 5397 5394 5390 5387 5383 5380 5376 5372 5368 5364 5360 5355 5351 5347 5342 5338 5334 5329 5325 5320 5316 5312 5308 5304 5301 5296 5292 5288 5284 5279 5275
5399 5397 5396 5394 5392 5390 5388 5386 5383 5380 5377 5375 5371 5368 5365 5362 5358 5355 5351 5347 5343 5339 5336 5332 5327 5323 5319 5315 5311 5307 5303 5300 5296 5293 5289 5286 5283 5279 5275 5271 5267 5263 5259